Location: Newark
(25.6108°S, 54.5803°W)
Time: 07:42:13
(UTC+00:00)

deb Explorer IX - Pass Details

Date: 02 November 2020
Orbit: 537 x 1105 km, 38.8° (Epoch: 02 December)

Event Time Altitude Azimuth Distance (km) Brightness Sun altitude
Rises 01:06:07 0° 240° (WSW) 2,886 ? -37.8°
Reaches altitude 10° 01:08:32 10° 242° (WSW) 1,915 ? -38.1°
Enters shadow 01:08:39 11° 242° (WSW) 1,871 ? -38.1°
Maximum altitude 01:12:51 73° 326° (NW) 580 - -38.8°
Drops below altitude 10° 01:16:53 10° 51° (NE) 1,789 - -39.4°
Sets 01:19:04 0° 53° (NE) 2,676 - -39.7°
